Regional Weather Roundup
Issued by NWS Little Rock, AR

Home | Current Version | Previous Version | Graphics & Text | Print | Product List | Glossary On
Versions: 1 2 3 4 5 6 7 8 9 10 11 12 13 14 15 16 17 18 19 20 21 22 23 24 25 26 27 28 29 30 31 32 33 34 35 36 37 38 39 40 41 42 43 44 45 46 47 48 49 50
000
ASUS44 KLZK 250805
RWRLZK

WEATHER ROUNDUP FOR ARKANSAS
NATIONAL WEATHER SERVICE LITTLE ROCK AR
300 AM CDT SAT MAR 25 2017

NOTE: "FAIR" INDICATES FEW OR NO CLOUDS BELOW 12,000 FEET WITH NO
SIGNIFICANT WEATHER AND/OR OBSTRUCTIONS TO VISIBILITY.

ARZ001-003-010-029-250900-
NORTHWEST ARKANSAS

CITY           SKY/WX    TMP DP  RH WIND       PRES   REMARKS
FAYETTEVILLE   CLOUDY    57  54  89 SE5       29.74F
FORT SMITH     PTCLDY    55  53  93 NE8       29.74F
HARRISON       CLOUDY    51  51 100 SE9       29.79F
BENTONVILLE    MOCLDY    54  50  87 SE5       29.75F
ROGERS         MOCLDY    53  51  93 E9        29.75F
SILOAM SPGS    CLOUDY    55  52  88 SE3       29.74F
HIGHFILL       CLOUDY    55  53  93 E5        29.74F
$$

ARZ004-005-016-250900-
NORTH CENTRAL ARKANSAS

CITY           SKY/WX    TMP DP  RH WIND       PRES   REMARKS
BATESVILLE     CLOUDY    55  54  94 SE9       29.89R
FLIPPIN        CLOUDY    54  48  82 E7        29.80S
MTN HOME       CLOUDY    53  52  96 SE9       29.82R
$$

ARZ040-041-250900-
WEST CENTRAL ARKANSAS

CITY           SKY/WX    TMP DP  RH WIND       PRES   REMARKS
MENA           CLOUDY    63  63 100 S6        29.77F
MOUNT IDA      MOCLDY    63  60  90 VRB3      29.77F
$$

ARZ009-017-025-026-028-250900-
NORTHEAST ARKANSAS

CITY           SKY/WX    TMP DP  RH WIND       PRES   REMARKS
CORNING        TSTM      55  55 100 E7        29.92F
JONESBORO      TSTM      56  54  93 E7        29.93F
NEWPORT        LGT RAIN  56  55  97 E13       29.90F
WALNUT RIDGE   CLOUDY    55  52  88 E13       29.90F
BLYTHEVILLE    HVY RAIN  56  55  97 W14G21    30.01R FOG
$$

ARZ022-023-033-042-044-250900-
CENTRAL ARKANSAS

CITY           SKY/WX    TMP DP  RH WIND       PRES   REMARKS
LITTLE ROCK    CLOUDY    59  59 100 E6        29.83F
N LITTLE ROCK    N/A     58  57  94 E6        29.83F
JACKSONVILLE   CLOUDY    59  59 100 E8        29.83F
CONWAY           N/A     59  57  94 NE5       29.81F
SEARCY         CLOUDY    56  56 100 E6        29.89F
HOT SPRINGS    CLOUDY    61  60  97 NW6       29.82F
RUSSELLVILLE   LGT RAIN  56  55  97 E6        29.82S
CLINTON        LGT RAIN  55  55 100 CALM      29.86R
$$

ARZ036-250900-
EAST ARKANSAS

CITY           SKY/WX    TMP DP  RH WIND       PRES   REMARKS
WEST MEMPHIS   RAIN      58  57  97 VRB5      29.99R FOG
$$

ARZ050-053-066-070-073-250900-
SOUTHWEST ARKANSAS

CITY           SKY/WX    TMP DP  RH WIND       PRES   REMARKS
ARKADELPHIA    CLOUDY    60  59  96 CALM      29.83S
CAMDEN         CLOUDY    63  57  82 S10       29.83F
TEXARKANA      CLOUDY    63  62  97 S9        29.83S
EL DORADO      CLOUDY    62  60  93 S9        29.86F
DE QUEEN       CLOUDY    63  63 100 S9        29.77F
$$

ARZ056-057-069-250900-
SOUTHEAST ARKANSAS

CITY           SKY/WX    TMP DP  RH WIND       PRES   REMARKS
PINE BLUFF     CLOUDY    61  59  93 S12       29.85F
STUTTGART      CLOUDY    61  52  72 SE7       29.90F
MONTICELLO     LGT RAIN  64  61  90 S14G26    29.89F

$$





USA.gov is the U.S. government's official web portal to all federal, state and local government web resources and services.